Farmington, NM

6:52 PM MST on January 22, 2017 (GMT -0700)
Four Corners Regional

Weather History for KFMN - February, 2012

Change the Weather History Date:

Sunday, February 19, 2012

  Actual Average Record
Temperature  
Mean Temperature 36 °F -  
Max Temperature 46 °F 47 °F 64 °F (2011)
Min Temperature 27 °F 24 °F 13 °F (1984)
Degree Days  
Heating Degree Days 28    
Moisture  
Dew Point 25 °F    
Average Humidity 75    
Maximum Humidity 100    
Minimum Humidity 32    
Precipitation  
Precipitation 0.09 in - - ()
Sea Level Pressure  
Sea Level Pressure 29.81 in    
Wind  
Wind Speed 8 mph (NNW)    
Max Wind Speed 15 mph    
Max Gust Speed 25 mph    
Visibility 6 miles    
Events Fog , Snow    
Averages and records for this station are not official NWS values.
T = Trace of Precipitation, MM = Missing Value Source: NWS Daily Summary

Daily Weather History Graph

Daily Weather History Graph

Search for Another Location

Airport or City:

Trip Planner

Search our weather history database for the weather conditions in past years. The results will help you decide how hot, cold, wet, or windy it might be!

Date:

Astronomy

Feb. 19, 2012 Rise Set
Actual Time 6:57 AM MST 5:57 PM MST
Civil Twilight 6:30 AM MST 6:23 PM MST
Nautical Twilight 6:00 AM MST 6:53 PM MST
Astronomical Twilight 5:30 AM MST 7:23 PM MST
Moon 5:17 AM MST (2/19) 4:03 PM MST (2/19)
Length of Visible Light 11h 52m
Length of Day
11h 00m
Waning Crescent, 5% of the Moon is Illuminated
Feb 19
Waning Crescent
Feb 21
New
Feb 29
First Quarter
Mar 8
Full
Mar 14
Last Quarter

Hourly Weather History & Observations

Time (MST) Temp. Windchill Dew Point Humidity Pressure Visibility Wind Dir Wind Speed Gust Speed Precip Events Conditions
12:53 AM 27.0 °F 19.5 °F 16.0 °F 63% 29.98 in 10.0 mi East 6.9 mph - N/A   Clear
1:53 AM 28.0 °F 21.7 °F 16.0 °F 61% 29.94 in 10.0 mi ENE 5.8 mph - N/A   Clear
2:53 AM 30.0 °F 21.7 °F 17.1 °F 59% 29.91 in 10.0 mi East 9.2 mph - N/A   Clear
3:53 AM 32.0 °F 24.2 °F 17.1 °F 54% 29.88 in 10.0 mi ENE 9.2 mph - N/A   Clear
4:53 AM 32.0 °F 26.4 °F 18.0 °F 56% 29.88 in 10.0 mi NE 5.8 mph - N/A   Clear
5:53 AM 30.9 °F 23.5 °F 18.0 °F 59% 29.88 in 10.0 mi ENE 8.1 mph - N/A   Clear
6:53 AM 32.0 °F 24.8 °F 18.0 °F 56% 29.89 in 10.0 mi East 8.1 mph - N/A   Clear
7:53 AM 33.1 °F 25.5 °F 19.0 °F 56% 29.89 in 10.0 mi East 9.2 mph - N/A   Clear
8:53 AM 36.0 °F 28.5 °F 19.0 °F 50% 29.91 in 10.0 mi East 10.4 mph - N/A   Clear
9:53 AM 41.0 °F 35.2 °F 19.9 °F 43% 29.86 in 10.0 mi ENE 9.2 mph - N/A   Clear
10:53 AM 44.1 °F 40.8 °F 21.0 °F 40% 29.83 in 10.0 mi East 5.8 mph - N/A   Mostly Cloudy
11:53 AM 46.9 °F - 18.0 °F 32% 29.79 in 10.0 mi North 3.5 mph - N/A   Mostly Cloudy
12:53 PM 45.0 °F 38.2 °F 17.1 °F 33% 29.78 in 10.0 mi WSW 15.0 mph 21.9 mph N/A   Overcast
1:53 PM 43.0 °F 37.7 °F 19.0 °F 38% 29.75 in 10.0 mi NW 9.2 mph 21.9 mph N/A   Overcast
2:49 PM 37.4 °F 30.3 °F 26.6 °F 65% 29.75 in 2.5 mi WNW 10.4 mph 25.3 mph 0.00 in Snow Light Snow
2:53 PM 36.0 °F 29.6 °F 28.0 °F 73% 29.78 in 2.0 mi NW 8.1 mph - 0.00 in Snow Light Snow
3:03 PM 33.8 °F 28.6 °F 30.2 °F 87% 29.76 in 1.0 mi NNW 5.8 mph - 0.00 in Snow Light Snow
3:06 PM 33.8 °F 27.7 °F 30.2 °F 87% 29.76 in 0.8 mi NW 6.9 mph - 0.01 in Snow Light Snow
3:34 PM 33.8 °F 27.0 °F 32.0 °F 93% 29.75 in 1.2 mi North 8.1 mph - 0.03 in Snow Light Snow
3:40 PM 33.8 °F 27.7 °F 32.0 °F 93% 29.75 in 2.0 mi NNW 6.9 mph - 0.03 in Snow Light Snow
3:53 PM 33.1 °F 27.7 °F 32.0 °F 96% 29.78 in 2.0 mi NNE 5.8 mph - 0.04 in Snow Light Snow
4:02 PM 33.8 °F 28.6 °F 32.0 °F 93% 29.74 in 7.0 mi NE 5.8 mph - 0.00 in Snow Light Snow
4:18 PM 35.6 °F - 33.8 °F 93% 29.74 in 10.0 mi Calm Calm - 0.00 in   Overcast
4:34 PM 33.8 °F - 33.8 °F 100% 29.75 in 1.8 mi Calm Calm - 0.00 in Snow Light Snow
4:38 PM 33.8 °F 30.8 °F 32.0 °F 93% 29.75 in 0.8 mi Variable 3.5 mph - 0.01 in Snow Light Snow
4:42 PM 33.8 °F 30.8 °F 30.2 °F 87% 29.75 in 0.5 mi Variable 3.5 mph - 0.03 in Fog , Snow Snow
4:53 PM 32.0 °F 26.4 °F 32.0 °F 100% 29.79 in 0.8 mi South 5.8 mph - 0.05 in Snow Light Snow
4:57 PM 32.0 °F 26.4 °F 32.0 °F 100% 29.75 in 0.5 mi Variable 5.8 mph - 0.00 in Fog , Snow Light Snow
5:04 PM 33.8 °F 29.6 °F 32.0 °F 93% 29.75 in 1.0 mi SSE 4.6 mph - 0.00 in   Overcast
5:06 PM 33.8 °F 30.8 °F 32.0 °F 93% 29.75 in 2.0 mi SSE 3.5 mph - 0.00 in   Overcast
5:18 PM 33.8 °F 29.6 °F 33.8 °F 100% 29.75 in 9.0 mi WSW 4.6 mph - 0.00 in   Overcast
5:53 PM 34.0 °F 25.5 °F 30.9 °F 89% 29.79 in 10.0 mi West 11.5 mph - 0.00 in   Overcast
6:53 PM 33.1 °F 23.0 °F 28.0 °F 82% 29.81 in 10.0 mi West 15.0 mph 23.0 mph N/A   Overcast
7:53 PM 30.0 °F 23.2 °F 27.0 °F 88% 29.82 in 10.0 mi West 6.9 mph - N/A   Clear
8:53 PM 30.0 °F 21.7 °F 24.1 °F 79% 29.82 in 10.0 mi West 9.2 mph - N/A   Scattered Clouds
9:53 PM 30.9 °F 21.2 °F 21.9 °F 69% 29.84 in 10.0 mi West 12.7 mph - N/A   Clear
10:48 PM 28.4 °F 17.5 °F 24.8 °F 86% 29.85 in 2.0 mi West 13.8 mph - 0.00 in Snow Light Snow
10:53 PM 28.9 °F 18.6 °F 24.1 °F 82% 29.86 in 2.5 mi West 12.7 mph - 0.00 in Snow Light Snow
11:00 PM 28.4 °F 17.0 °F 24.8 °F 86% 29.85 in 8.0 mi West 15.0 mph 20.7 mph 0.00 in Snow Light Snow
11:07 PM 30.2 °F 19.3 °F 23.0 °F 75% 29.85 in 9.0 mi West 15.0 mph 24.2 mph 0.00 in   Overcast
11:53 PM 28.0 °F 18.1 °F 23.0 °F 81% 29.87 in 10.0 mi West 11.5 mph - 0.00 in   Mostly Cloudy